Regional Weather Roundup
Issued by NWS

Home | Current Version | Previous Version | Graphics & Text | Print | Product List | Glossary On
Versions: 1 2 3 4 5 6 7 8 9 10 11 12 13 14 15 16 17 18 19 20 21 22 23 24 25 26 27
000
ASUS45 KBOI 240810
RWRID

IDAHO REGIONAL WEATHER ROUNDUP
NATIONAL WEATHER SERVICE BOISE ID
200 AM MDT WED MAY 24 2017

NOTE: "FAIR" INDICATES FEW OR NO CLOUDS BELOW 12000 FEET
WITH NO SIGNIFICANT WEATHER AND/OR OBSTRUCTIONS TO VISIBILITY

IDZ012-014-240900-
SOUTHWEST IDAHO


CITY           SKY/WX    TMP DP  RH WIND       PRES   REMARKS
BOISE          CLEAR     67  43  41 E12       29.77F
CALDWELL       CLEAR     61  47  59 CALM      29.76S
MOUNTAIN HOME  CLEAR     60  45  57 E13       29.78F
$$

IDZ016-017-240900-
SOUTHCENTRAL IDAHO


CITY           SKY/WX    TMP DP  RH WIND       PRES   REMARKS
BURLEY         CLEAR     57  43  59 S12       29.87F
JEROME         CLEAR     61  40  45 SE9       29.88F
TWIN FALLS     CLEAR     61  41  47 S15       29.87F
$$

IDZ019>023-240900-
SOUTHEAST IDAHO


CITY           SKY/WX    TMP DP  RH WIND       PRES   REMARKS
IDAHO FALLS    CLEAR     63  38  39 S14       29.89F
POCATELLO      CLEAR     58  39  49 SW7       29.90F
REXBURG        CLEAR     62  34  35 S12G23    29.88F
$$

IDZ006-010-011-018-031-032-240900-
CENTRAL IDAHO MOUNTAINS


CITY           SKY/WX    TMP DP  RH WIND       PRES   REMARKS
MCCALL         PTCLDY    49  41  74 CALM      29.87F
HAILEY         CLEAR     52  41  66 NW12      29.96F
STANLEY          N/A     45  36  70 W6        29.99F
SALMON         CLEAR     54  43  66 CALM      29.77F
CHALLIS        CLEAR     54  39  57 CALM      29.87F
$$

IDZ002-004-006-007-026-240900-
NORTHERN IDAHO


CITY           SKY/WX    TMP DP  RH WIND       PRES   REMARKS
LEWISTON       CLEAR     68  37  32 W12       29.72S
LOWELL           N/A     60  54  80 CALM      29.71R
COEUR D`ALENE  CLEAR     62  40  44 SW20      29.64R
MULLAN PASS    CLEAR     50  26  39 SW12G23   29.76F
$$




USA.gov is the U.S. government's official web portal to all federal, state and local government web resources and services.